| time (UTC) | temp F | wind direction | speed knots | gust knots | rain 1hr in | rain 24hr in | rain mn in | humidity % | barometer mb |
| 20260906034912 | 63 | 300 | 6.1 | 0.0 | 0.00 | 0.00 | 0.00 | 77 | 1021.0 |
| 20260906033512 | 63 | 300 | 6.1 | 0.0 | 0.00 | 0.00 | 0.00 | 77 | 1021.0 |
| 20260906032013 | 64 | 290 | 7.0 | 0.0 | 0.00 | 0.00 | 0.00 | 73 | 1021.0 |
| 20260906030512 | 64 | 290 | 7.0 | 0.0 | 0.00 | 0.00 | 0.00 | 73 | 1021.0 |
| 20260906024918 | 64 | 280 | 6.1 | 0.0 | 0.00 | 0.00 | 0.00 | 73 | 1020.0 |
| 20260906023351 | 64 | 280 | 6.1 | 0.0 | 0.00 | 0.00 | 0.00 | 73 | 1020.0 |
| 20260906021857 | 64 | 280 | 7.0 | 0.0 | 0.00 | 0.00 | 0.00 | 78 | 1020.0 |
| 20260906020352 | 64 | 280 | 7.0 | 0.0 | 0.00 | 0.00 | 0.00 | 78 | 1020.0 |
| 20260906014852 | 64 | 290 | 12.2 | 0.0 | 0.00 | 0.00 | 0.00 | 73 | 1020.0 |
| 20260906013512 | 64 | 290 | 12.2 | 0.0 | 0.00 | 0.00 | 0.00 | 73 | 1020.0 |
| 20260906011850 | 64 | 260 | 5.2 | 0.0 | 0.00 | 0.00 | 0.00 | 73 | 1020.0 |
| 20260906010350 | 64 | 260 | 5.2 | 0.0 | 0.00 | 0.00 | 0.00 | 73 | 1020.0 |
| 20260906005012 | 64 | 280 | 6.1 | 0.0 | 0.00 | 0.00 | 0.00 | 73 | 1019.0 |
| 20260906003522 | 64 | 280 | 6.1 | 0.0 | 0.00 | 0.00 | 0.00 | 73 | 1019.0 |
| 20260906002013 | 64 | 290 | 7.0 | 0.0 | 0.00 | 0.00 | 0.00 | 78 | 1019.0 |
| 20260906000502 | 64 | 290 | 7.0 | 0.0 | 0.00 | 0.00 | 0.00 | 78 | |
| 20260905234901 | 64 | 2.6 | 0.0 | 0.00 | 0.00 | 0.00 | 83 | 1020.0 | |
| 20260905233350 | 64 | 2.6 | 0.0 | 0.00 | 0.00 | 0.00 | 83 | 1020.0 | |
| 20260905232014 | 66 | 310 | 4.3 | 0.0 | 0.00 | 0.00 | 0.00 | 73 | 1019.0 |
| 20260905230423 | 66 | 310 | 4.3 | 0.0 | 0.00 | 0.00 | 0.00 | 73 | 1019.0 |
| 20260905225013 | 66 | 10 | 4.3 | 0.0 | 0.00 | 0.00 | 0.00 | 68 | 1019.0 |
| 20260905223404 | 66 | 10 | 4.3 | 0.0 | 0.00 | 0.00 | 0.00 | 68 | 1019.0 |
| 20260905221957 | 66 | 1.7 | 0.0 | 0.00 | 0.00 | 0.00 | 73 | 1019.0 | |
| 20260905220512 | 66 | 1.7 | 0.0 | 0.00 | 0.00 | 0.00 | 73 | 1019.0 | |
| 20260905215011 | 66 | 350 | 2.6 | 0.0 | 0.00 | 0.00 | 0.00 | 68 | 1019.0 |
| 20260905213351 | 66 | 350 | 2.6 | 0.0 | 0.00 | 0.00 | 0.00 | 68 | 1019.0 |
| 20260905211847 | 70 | 2.6 | 0.0 | 0.00 | 0.00 | 0.00 | 60 | 1019.0 | |
| 20260905210350 | 70 | 2.6 | 0.0 | 0.00 | 0.00 | 0.00 | 60 | 1019.0 | |
| 20260905204901 | 70 | 0.9 | 0.0 | 0.00 | 0.00 | 0.00 | 60 | 1019.0 | |
| 20260905203350 | 70 | 0.9 | 0.0 | 0.00 | 0.00 | 0.00 | 60 | 1019.0 | |
| 20260905201850 | 72 | 90 | 2.6 | 0.0 | 0.00 | 0.00 | 0.00 | 57 | 1019.0 |
| 20260905200512 | 72 | 90 | 2.6 | 0.0 | 0.00 | 0.00 | 0.00 | 57 | 1019.0 |
| 20260905195005 | 73 | 1.7 | 0.0 | 0.00 | 0.00 | 0.00 | 53 | 1018.0 | |
| 20260905193351 | 73 | 1.7 | 0.0 | 0.00 | 0.00 | 0.00 | 53 | 1018.0 | |
| 20260905191920 | 73 | 300 | 7.8 | 0.0 | 0.00 | 0.00 | 0.00 | 53 | 1018.0 |
| 20260905190351 | 73 | 300 | 7.8 | 0.0 | 0.00 | 0.00 | 0.00 | 53 | 1018.0 |
| 20260905184848 | 75 | 300 | 12.2 | 0.0 | 0.00 | 0.00 | 0.00 | 50 | 1018.0 |
| 20260905183356 | 75 | 300 | 12.2 | 0.0 | 0.00 | 0.00 | 0.00 | 50 | 1018.0 |
| 20260905181847 | 75 | 310 | 7.8 | 0.0 | 0.00 | 0.00 | 0.00 | 54 | 1017.0 |
| 20260905180347 | 75 | 310 | 7.8 | 0.0 | 0.00 | 0.00 | 0.00 | 54 | 1017.0 |
| 20260905174844 | 79 | 270 | 7.0 | 0.0 | 0.00 | 0.00 | 0.00 | 42 | 1017.0 |
| 20260905173350 | 79 | 270 | 7.0 | 0.0 | 0.00 | 0.00 | 0.00 | 42 | 1017.0 |
| 20260905171852 | 79 | 230 | 8.7 | 0.0 | 0.00 | 0.00 | 0.00 | 48 | 1016.0 |
| 20260905170351 | 79 | 230 | 8.7 | 0.0 | 0.00 | 0.00 | 0.00 | 48 | 1016.0 |
| 20260905164851 | 84 | 240 | 6.1 | 0.0 | 0.00 | 0.00 | 0.00 | 33 | 1016.0 |
| 20260905163352 | 84 | 240 | 6.1 | 0.0 | 0.00 | 0.00 | 0.00 | 33 | 1016.0 |
| 20260905161849 | 84 | 260 | 6.1 | 0.0 | 0.00 | 0.00 | 0.00 | 33 | 1015.0 |
| 20260905160351 | 84 | 260 | 6.1 | 0.0 | 0.00 | 0.00 | 0.00 | 33 | 1015.0 |
| 20260905154901 | 86 | 270 | 7.8 | 0.0 | 0.00 | 0.00 | 0.00 | 35 | 1015.0 |
| 20260905153350 | 86 | 270 | 7.8 | 0.0 | 0.00 | 0.00 | 0.00 | 35 | 1015.0 |
| 20260905151851 | 88 | 270 | 6.1 | 0.0 | 0.00 | 0.00 | 0.00 | 29 | 1015.0 |
| 20260905150351 | 88 | 270 | 6.1 | 0.0 | 0.00 | 0.00 | 0.00 | 29 | 1015.0 |
| 20260905144844 | 88 | 270 | 7.8 | 0.0 | 0.00 | 0.00 | 0.00 | 29 | 1015.0 |
| 20260905143350 | 88 | 270 | 7.8 | 0.0 | 0.00 | 0.00 | 0.00 | 29 | 1015.0 |
| 20260905141848 | 88 | 280 | 7.8 | 0.0 | 0.00 | 0.00 | 0.00 | 29 | 1015.0 |
| 20260905140347 | 88 | 280 | 7.8 | 0.0 | 0.00 | 0.00 | 0.00 | 29 | 1015.0 |
| 20260905135009 | 90 | 290 | 8.7 | 0.0 | 0.00 | 0.00 | 0.00 | 26 | 1016.0 |
| 20260905133351 | 90 | 290 | 8.7 | 0.0 | 0.00 | 0.00 | 0.00 | 26 | 1016.0 |
| 20260905131853 | 88 | 280 | 6.1 | 0.0 | 0.00 | 0.00 | 0.00 | 29 | 1016.0 |
| 20260905130412 | 88 | 280 | 6.1 | 0.0 | 0.00 | 0.00 | 0.00 | 29 | 1016.0 |
| 20260905124845 | 88 | 310 | 6.1 | 0.0 | 0.00 | 0.00 | 0.00 | 29 | 1016.0 |
| 20260905123351 | 88 | 310 | 6.1 | 0.0 | 0.00 | 0.00 | 0.00 | 29 | 1016.0 |
| 20260905121918 | 88 | 300 | 5.2 | 0.0 | 0.00 | 0.00 | 0.00 | 31 | 1016.0 |
| 20260905120351 | 88 | 300 | 5.2 | 0.0 | 0.00 | 0.00 | 0.00 | 31 | 1016.0 |
| 20260905114851 | 86 | 2.6 | 0.0 | 0.00 | 0.00 | 0.00 | 33 | 1017.0 | |
| 20260905113350 | 86 | 2.6 | 0.0 | 0.00 | 0.00 | 0.00 | 33 | 1017.0 | |
| 20260905111909 | 84 | 1.7 | 0.0 | 0.00 | 0.00 | 0.00 | 37 | 1017.0 | |
| 20260905110350 | 84 | 1.7 | 0.0 | 0.00 | 0.00 | 0.00 | 37 | 1017.0 | |
| 20260905104851 | 82 | 340 | 1.7 | 0.0 | 0.00 | 0.00 | 0.00 | 40 | 1017.0 |
| 20260905103351 | 82 | 340 | 1.7 | 0.0 | 0.00 | 0.00 | 0.00 | 40 | 1017.0 |
| 20260905101850 | 82 | 360 | 1.7 | 0.0 | 0.00 | 0.00 | 0.00 | 40 | 1018.0 |
| 20260905100351 | 82 | 360 | 1.7 | 0.0 | 0.00 | 0.00 | 0.00 | 40 | 1018.0 |
| 20260905095012 | 81 | 1.7 | 0.0 | 0.00 | 0.00 | 0.00 | 42 | 1018.0 | |
| 20260905093350 | 81 | 1.7 | 0.0 | 0.00 | 0.00 | 0.00 | 42 | 1018.0 | |
| 20260905091851 | 77 | 1.7 | 0.0 | 0.00 | 0.00 | 0.00 | 47 | 1018.0 | |
| 20260905090350 | 77 | 1.7 | 0.0 | 0.00 | 0.00 | 0.00 | 47 | 1018.0 | |
| 20260905084850 | 77 | 2.6 | 0.0 | 0.00 | 0.00 | 0.00 | 51 | 1018.0 | |
| 20260905083351 | 77 | 2.6 | 0.0 | 0.00 | 0.00 | 0.00 | 51 | 1018.0 | |
| 20260905081850 | 72 | 60 | 2.6 | 0.0 | 0.00 | 0.00 | 0.00 | 61 | 1018.0 |
| 20260905080351 | 72 | 60 | 2.6 | 0.0 | 0.00 | 0.00 | 0.00 | 61 | 1018.0 |
| 20260905074850 | 70 | 100 | 0.9 | 0.0 | 0.00 | 0.00 | 0.00 | 60 | 1019.0 |
| 20260905073359 | 70 | 100 | 0.9 | 0.0 | 0.00 | 0.00 | 0.00 | 60 | 1019.0 |
| 20260905071851 | 66 | 1.7 | 0.0 | 0.00 | 0.00 | 0.00 | 64 | 1019.0 | |
| 20260905070351 | 66 | 1.7 | 0.0 | 0.00 | 0.00 | 0.00 | 64 | 1019.0 | |
| 20260905064851 | 63 | 2.6 | 0.0 | 0.00 | 0.00 | 0.00 | 73 | 1019.0 | |
| 20260905063351 | 63 | 2.6 | 0.0 | 0.00 | 0.00 | 0.00 | 73 | 1019.0 | |
| 20260905061851 | 61 | 0.9 | 0.0 | 0.00 | 0.00 | 0.00 | 72 | 1019.0 | |
| 20260905060352 | 61 | 0.9 | 0.0 | 0.00 | 0.00 | 0.00 | 72 | 1019.0 | |
| 20260905054851 | 59 | 60 | 0.9 | 0.0 | 0.00 | 0.00 | 0.00 | 77 | 1019.0 |
| 20260905053351 | 59 | 60 | 0.9 | 0.0 | 0.00 | 0.00 | 0.00 | 77 | 1019.0 |
| 20260905051850 | 55 | 0 | 0.0 | 0.0 | 0.00 | 0.00 | 0.00 | 88 | 1019.0 |
| 20260905050351 | 55 | 0 | 0.0 | 0.0 | 0.00 | 0.00 | 0.00 | 88 | 1019.0 |
| 20260905044851 | 52 | 0 | 0.0 | 0.0 | 0.00 | 0.00 | 0.00 | 94 | 1019.0 |
| 20260905043350 | 52 | 0 | 0.0 | 0.0 | 0.00 | 0.00 | 0.00 | 94 | 1019.0 |
| 20260905041851 | 50 | 0 | 0.0 | 0.0 | 0.00 | 0.00 | 0.00 | 100 | 1019.0 |
| 20260905040350 | 50 | 0 | 0.0 | 0.0 | 0.00 | 0.00 | 0.00 | 100 | 1019.0 |